AirNav   ATP
 
 1411 users online  

8G8 Koons Airport
Salem, Ohio, USA

GOING TO SALEM?


FAA INFORMATION EFFECTIVE 13 SEPTEMBER 2018

Location

FAA Identifier: 8G8
Lat/Long: 40-53-00.2120N / 080-52-59.3050W
40-53.003533N / 080-52.988417W
40.8833922 / -80.8831403
(estimated)
Elevation: 1327 ft. / 404 m (estimated)
Variation: 07W (1985)
From city: 2 miles SW of SALEM, OH
Time zone: UTC -4 (UTC -5 during Standard Time)
Zip code: 44460

Airport Operations

Airport use: Open to the public
Control tower: no
ARTCC: CLEVELAND CENTER
FSS: CLEVELAND FLIGHT SERVICE STATION
NOTAMs facility: CLE (NOTAM-D service available)
Attendance: DAYLIGHT HOURS
Wind indicator: yes
Segmented circle: no

Airport Communications

CTAF: 122.9

Nearby radio navigation aids

VOR radial/distance  VOR name  Freq  Var
ACOr137/19.7AKRON VOR/DME114.4004W
BSVr075/26.4BRIGGS VOR/DME112.4004W
YNGr204/28.5YOUNGSTOWN VORTAC109.0005W
EWCr285/30.7ELLWOOD CITY VOR/DME115.8008W

 
NDB name  Hdg/Dist  Freq  Var  ID
CASTLE257/22.827209WUCP ..- -.-. .--.
CADIZ016/39.223907WCFX -.-. ..-. -..-

Airport Services

Parking: tiedowns
Airframe service: NONE
Powerplant service: NONE

Runway Information

Runway 9/27

Dimensions: 1850 x 100 ft. / 564 x 30 m
Surface: turf, in good condition
RUNWAY 9  RUNWAY 27
Latitude: 40-53.008667N40-52.998167N
Longitude: 080-53.188833W080-52.787667W
Elevation: 1327.0 ft.1327.0 ft.
Gradient: 1.4%1.4%
Traffic pattern: leftright
Runway end identifier lights: nono
Obstructions: 8 ft. crops, 125 ft. both sides of centerline
RWY 09: OBST CLNS SLOPE 7:1, DUE TO 55-FT TREE, 385-FT FM RWY 09, 55-FT L
70 ft. trees, 50 ft. from runway, 75 ft. left of centerline
RWY 27: OBST CLNS SLOPE 1:1, DUE TO 75-FT TREES 135-FT FM, RWY 27, 60-FT L

Airport Ownership and Management from official FAA records

Ownership: Privately-owned
Owner: DAVID & HARRY KOONS
1760 ST RTE 9
SALEM, OH 44460
Phone 330-337-7303
Manager: DAVID & HARRY KOONS
1760 ST RTE 9
SALEM, OH 44460
Phone 330-337-7303
ADNL CTC: 330-337-1780

Airport Operational Statistics

Aircraft based on the field: 9
Single engine airplanes: 7
Ultralights: 2
    
Aircraft operations: avg 49/week *
98% local general aviation
2% transient general aviation
<1% military
* for 12-month period ending 26 August 2017

Additional Remarks

FOR IFR CLEARANCE CTC CLEVELAND ARTCC (ZOB) 120.775/298.95 OR CALL ZOB 440-774-0489.
DEER, BIRDS & OTHER WILDLIFE ON & INVOF AIRPORT

Instrument Procedures

There are no published instrument procedures at 8G8.

Some nearby airports with instrument procedures:

38D - Salem Airpark Inc (4 nm N)
3G6 - Tri-City Airport (5 nm W)
4G4 - Youngstown Elser Metro Airport (10 nm NE)
02G - Columbiana County Airport (17 nm SE)
KTSO - Carroll County-Tolson Airport (21 nm SW)
 
Loc | Ops | Rwys | IFR | FBO | Links
Com | Nav | Svcs | Stats | Notes


 
Area around 8G8 (Koons Airport)
 
Road maps at: MapQuest Bing Google
 
Aerial photo
WARNING: Photo may not be current or correct
Aerial photo of 8G8 (Koons Airport)
Photo by Rick Hunt
Photo taken 22-Mar-2015
looking south.

Do you have a better or more recent aerial photo of Koons Airport that you would like to share? If so, please send us your photo.

 
Sectional chart

 
Airport distance calculator
Flying to Koons Airport? Find the distance to fly.

From to 8G8

Sunrise and sunset
Times for 20-Sep-2018
 Local
(UTC-4)
 Zulu
(UTC)
Morning civil twilight06:4310:43
Sunrise07:1011:10
Sunset19:2423:24
Evening civil twilight19:5123:51

Current date and time
Zulu (UTC)  20-Sep-2018 16:55:13
Local (UTC-4)  20-Sep-2018 12:55:13
 
METAR
KUCP 
23nm E 
201556Z AUTO VRB05KT 10SM CLR 25/19 A3016 RMK AO2 SLP223 T02500189
KBVI 
23nm E 
201547Z 15003KT 10SM BKN030 BKN037 BKN048 25/19 A3017
KYNG 
24nm NE 
201551Z 16007KT 10SM FEW040 FEW200 SCT250 26/19 A3014 RMK AO2 SLP201 T02560194
KPOV 
26nm NW 
201636Z AUTO 00000KT 10SM CLR 27/20 A3013 RMK AO2 T02690195 PWINO
KCAK 
26nm W 
201551Z 18008KT 10SM FEW060 FEW250 27/20 A3013 RMK AO2 SLP196 T02720200
KAKR 
28nm W 
201554Z AUTO 20007KT 10SM CLR 28/21 A3012 RMK AO2 SLP193 T02830206
KPHD 
35nm SW 
201553Z AUTO 00000KT 10SM CLR 28/21 A3013 RMK AO2 SLP198 T02780211
KPIT 
36nm SE 
201551Z 00000KT 10SM FEW045 SCT130 24/19 A3016 RMK AO2 SLP211 T02440194
KBTP 
43nm E 
201556Z AUTO 14004KT 10SM CLR 25/18 A3017 RMK AO2 SLP216 T02500183
KHLG 
44nm S 
201553Z VRB05KT 10SM CLR 27/21 A3015 RMK AO2 SLP205 T02670206
TAF
KBVI 
23nm E 
201129Z 2012/2112 36003KT P6SM SKC FM201700 16005KT P6SM SCT035
KYNG 
24nm NE 
201128Z 2012/2112 VRB04KT 6SM BR FEW008 TEMPO 2012/2014 3SM BR FM201400 VRB03KT P6SM FEW035 SCT200 FM202000 18008KT P6SM FEW035 SCT250
KCAK 
26nm W 
201128Z 2012/2112 VRB03KT P6SM FEW080 SCT250 TEMPO 2012/2014 4SM BR FM201500 18008KT P6SM FEW035 SCT250
NOTAMs
Click for the latest NOTAMs
NOTAMs are issued by the DoD/FAA and will open in a separate window not controlled by AirNav.

 

 
 

Would you like to see your business listed on this page?

 If your business provides an interesting product or service to pilots, flight crews, aircraft, or users of the Koons Airport, you should consider listing it here.  To start the listing process, click on the button below
 
Add a business
 

Other Pages about Koons Airport

Update a link
 
Copyright © AirNav, LLC. All rights reserved. Privacy Policy  Contact